Waarnemingen

Advertentie
Mijn weer
San Sebastian/Igueldo, Spanje (8027): temperatuur & dauwpunt: 11.12.2018 20:00:00 - 17.12.2018 20:00:00 (CET)San Sebastian/Igueldo, Spanje (8027): windsnelheid: 11.12.2018 20:00:00 - 17.12.2018 20:00:00 (CET)San Sebastian/Igueldo, Spanje (8027): windrichting: 11.12.2018 20:00:00 - 17.12.2018 20:00:00 (CET)San Sebastian/Igueldo, Spanje (8027): luchtdruk: 11.12.2018 20:00:00 - 17.12.2018 20:00:00 (CET)San Sebastian/Igueldo, Spanje (8027): zicht: 11.12.2018 20:00:00 - 17.12.2018 20:00:00 (CET)
Datum & Tijd tt [°C] td [°C] ff [km/u] ff [kn] dd ppp [hPa] vv [km]
17.12.2018 20:00:00 - - - - - - -
17.12.2018 19:00:00 9,9 1,0 16 9 ZZO 1026,7 50
17.12.2018 18:00:00 - - - - - - -
17.12.2018 17:00:00 - - - - - - -
17.12.2018 16:00:00 11,8 3,3 15 8 ZZO 1026,9 50
17.12.2018 15:00:00 - - - - - - -
17.12.2018 14:00:00 - - - - - - -
17.12.2018 13:00:00 10,2 3,3 11 6 ZZO 1028,2 50
17.12.2018 12:00:00 - - - - - - -
17.12.2018 11:00:00 - - - - - - -
17.12.2018 10:00:00 9,0 3,0 11 6 ZZW 1028,6 30
17.12.2018 09:00:00 - - - - - - -
17.12.2018 08:00:00 - - - - - - -
17.12.2018 07:00:00 9,2 2,5 15 8 WZW 1026,7 30
17.12.2018 06:00:00 - - - - - - -
17.12.2018 05:00:00 - - - - - - -
17.12.2018 04:00:00 9,2 3,2 21 11 W 1025,9 25
17.12.2018 03:00:00 - - - - - - -
17.12.2018 02:00:00 - - - - - - -
17.12.2018 01:00:00 9,4 2,9 24 13 W 1024,7 25
17.12.2018 00:00:00 - - - - - - -
16.12.2018 23:00:00 - - - - - - -
16.12.2018 22:00:00 9,2 4,2 26 14 WZW 1023,3 18
16.12.2018 21:00:00 - - - - - - -
16.12.2018 20:00:00 - - - - - - -
16.12.2018 19:00:00 9,8 6,3 42 23 W 1019,8 15
16.12.2018 18:00:00 - - - - - - -
16.12.2018 17:00:00 - - - - - - -
16.12.2018 16:00:00 10,8 8,4 11 6 W 1015,8 12
16.12.2018 15:00:00 - - - - - - -
16.12.2018 14:00:00 - - - - - - -
16.12.2018 13:00:00 9,8 9,8 11 6 NNW 1014,4 3,0
16.12.2018 12:00:00 - - - - - - -
16.12.2018 11:00:00 - - - - - - -
16.12.2018 10:00:00 9,4 9,4 9 5 NW 1014,9 5
16.12.2018 09:00:00 - - - - - - -
16.12.2018 08:00:00 - - - - - - -
16.12.2018 07:00:00 9,5 9,5 8 4 NW 1016,4 2,0
16.12.2018 06:00:00 - - - - - - -
16.12.2018 05:00:00 - - - - - - -
16.12.2018 04:00:00 12,0 12,0 13 7 NW 1017,3 0,8
16.12.2018 03:00:00 - - - - - - -
16.12.2018 02:00:00 - - - - - - -
16.12.2018 01:00:00 12,6 12,3 11 6 WNW 1018,3 35
16.12.2018 00:00:00 - - - - - - -
15.12.2018 23:00:00 - - - - - - -
15.12.2018 22:00:00 14,8 8,1 29 16 ZZO 1016,5 50
15.12.2018 21:00:00 - - - - - - -
15.12.2018 20:00:00 - - - - - - -
15.12.2018 19:00:00 14,8 7,8 21 11 ZZO 1016,3 35
15.12.2018 18:00:00 - - - - - - -
15.12.2018 17:00:00 - - - - - - -
15.12.2018 16:00:00 14,8 9,0 22 12 ZZO 1016,2 50
15.12.2018 15:00:00 - - - - - - -
15.12.2018 14:00:00 - - - - - - -
15.12.2018 13:00:00 13,4 9,1 21 11 ZZO 1018,5 45
15.12.2018 12:00:00 - - - - - - -
15.12.2018 11:00:00 - - - - - - -
15.12.2018 10:00:00 9,8 8,6 21 11 ZZO 1020,6 40
15.12.2018 09:00:00 - - - - - - -
15.12.2018 08:00:00 - - - - - - -
15.12.2018 07:00:00 9,3 6,2 18 10 ZZO 1020,7 20
15.12.2018 06:00:00 - - - - - - -
15.12.2018 05:00:00 - - - - - - -
15.12.2018 04:00:00 8,2 4,8 9 5 ZO 1021,7 30
15.12.2018 03:00:00 - - - - - - -
15.12.2018 02:00:00 - - - - - - -
15.12.2018 01:00:00 7,4 5,9 11 6 ZZO 1023,1 30
15.12.2018 00:00:00 - - - - - - -
14.12.2018 23:00:00 - - - - - - -
14.12.2018 22:00:00 8,5 6,3 11 6 ZZW 1023,8 30
14.12.2018 21:00:00 - - - - - - -
14.12.2018 20:00:00 - - - - - - -
14.12.2018 19:00:00 8,8 8,2 11 6 WZW 1023,8 10
14.12.2018 18:00:00 - - - - - - -
14.12.2018 17:00:00 - - - - - - -
14.12.2018 16:00:00 9,2 9,1 24 13 WNW 1022,3 5
14.12.2018 15:00:00 - - - - - - -
14.12.2018 14:00:00 - - - - - - -
14.12.2018 13:00:00 9,6 8,4 26 14 WNW 1021,3 15
14.12.2018 12:00:00 - - - - - - -
14.12.2018 11:00:00 - - - - - - -
14.12.2018 10:00:00 9,6 9,1 26 14 NW 1019,2 12
14.12.2018 09:00:00 - - - - - - -
14.12.2018 08:00:00 - - - - - - -
14.12.2018 07:00:00 9,6 9,1 41 22 WNW 1016,7 15
14.12.2018 06:00:00 - - - - - - -
14.12.2018 05:00:00 - - - - - - -
14.12.2018 04:00:00 10,0 8,4 39 21 W 1015,0 20
14.12.2018 03:00:00 - - - - - - -
14.12.2018 02:00:00 - - - - - - -
14.12.2018 01:00:00 10,5 8,3 44 24 WNW 1014,0 25
14.12.2018 00:00:00 - - - - - - -
13.12.2018 23:00:00 - - - - - - -
13.12.2018 22:00:00 9,9 8,7 46 25 WNW 1012,4 20
13.12.2018 21:00:00 - - - - - - -
13.12.2018 20:00:00 - - - - - - -
13.12.2018 19:00:00 10,0 9,1 42 23 NW 1010,0 9
13.12.2018 18:00:00 - - - - - - -
13.12.2018 17:00:00 - - - - - - -
13.12.2018 16:00:00 8,8 8,4 26 14 W 1007,7 5
13.12.2018 15:00:00 - - - - - - -
13.12.2018 14:00:00 - - - - - - -
13.12.2018 13:00:00 8,4 8,0 29 16 W 1007,4 6
13.12.2018 12:00:00 - - - - - - -
13.12.2018 11:00:00 - - - - - - -
13.12.2018 10:00:00 11,6 7,9 16 9 W 1005,4 15
13.12.2018 09:00:00 - - - - - - -
13.12.2018 08:00:00 - - - - - - -
13.12.2018 07:00:00 10,4 8,3 28 15 ZZO 1005,9 12
13.12.2018 06:00:00 - - - - - - -
13.12.2018 05:00:00 - - - - - - -
13.12.2018 04:00:00 12,4 6,7 18 10 Z 1007,2 11
13.12.2018 03:00:00 - - - - - - -
13.12.2018 02:00:00 - - - - - - -
13.12.2018 01:00:00 12,2 4,4 26 14 Z 1009,9 25
13.12.2018 00:00:00 - - - - - - -
12.12.2018 23:00:00 - - - - - - -
12.12.2018 22:00:00 11,0 5,3 18 10 Z 1012,6 15
12.12.2018 21:00:00 - - - - - - -
12.12.2018 20:00:00 - - - - - - -
12.12.2018 19:00:00 10,2 6,9 11 6 ZO 1016,8 15
12.12.2018 18:00:00 - - - - - - -
12.12.2018 17:00:00 - - - - - - -
12.12.2018 16:00:00 11,4 7,3 2 1 N 1018,3 15
12.12.2018 15:00:00 - - - - - - -
12.12.2018 14:00:00 - - - - - - -
12.12.2018 13:00:00 11,4 7,9 5 3 ZW 1020,8 25
12.12.2018 12:00:00 - - - - - - -
12.12.2018 11:00:00 - - - - - - -
12.12.2018 10:00:00 9,8 9,2 18 10 W 1022,1 15
12.12.2018 09:00:00 - - - - - - -
12.12.2018 08:00:00 - - - - - - -
12.12.2018 07:00:00 9,8 9,8 18 10 W 1022,1 3,0
12.12.2018 06:00:00 - - - - - - -
12.12.2018 05:00:00 - - - - - - -
12.12.2018 04:00:00 12,1 9,1 21 11 W 1022,0 15
12.12.2018 03:00:00 - - - - - - -
12.12.2018 02:00:00 - - - - - - -
12.12.2018 01:00:00 12,0 6,5 15 8 WZW 1022,2 30
12.12.2018 00:00:00 - - - - - - -
11.12.2018 23:00:00 - - - - - - -
11.12.2018 22:00:00 10,6 4,9 18 10 W 1021,2 30
11.12.2018 21:00:00 - - - - - - -
11.12.2018 20:00:00 - - - - - - -

tt = temperatuur
td = dauwpunt
ff = windsnelheid
dd = windrichting
ppp = luchtdruk
vv = zicht

Weerstations in de omgeving